This is the latest recevied weather packets stored in our database for station/object N9BID. If no packets are shown the sender has not sent any weather packets the latest 10 day(s).
| Time | Temp. | Humidity | Pressure | Rain* | Wind** | Luminosity | Snow |
|---|---|---|---|---|---|---|---|
| 1777685867 | 5.56° C | 51% | 1010.5 hPa | 0 mm | - | 0 W/m² | - |
| 1777685563 | 5.56° C | 49% | 1010.3 hPa | 0 mm | - | 0 W/m² | - |
| 1777685260 | 5.56° C | 49% | 1010.3 hPa | 0 mm | - | 0 W/m² | - |
| 1777684958 | 5.56° C | 48% | 1010.3 hPa | 0 mm | - | 0 W/m² | - |
| 1777684655 | 5.56° C | 50% | 1010.4 hPa | 0 mm | - | 0 W/m² | - |
| 1777684350 | 6.11° C | 49% | 1010.3 hPa | 0 mm | - | 0 W/m² | - |
| 1777684049 | 6.11° C | 50% | 1010.3 hPa | 0 mm | - | 1 W/m² | - |
| 1777683744 | 6.11° C | 48% | 1010.2 hPa | 0 mm | - | 3 W/m² | - |
| 1777683442 | 6.67° C | 47% | 1010.2 hPa | 0 mm | - | 6 W/m² | - |
| 1777683139 | 6.67° C | 49% | 1010.3 hPa | 0 mm | - | 8 W/m² | - |
| 1777682835 | 6.67° C | 48% | 1010 hPa | 0 mm | - | 11 W/m² | - |
| 1777682532 | 6.67° C | 51% | 1010.1 hPa | 0 mm | - | 13 W/m² | - |
| 1777682230 | 6.67° C | 50% | 1010.1 hPa | 0 mm | - | 17 W/m² | - |
| 1777681927 | 6.67° C | 49% | 1010 hPa | 0 mm | - | 23 W/m² | - |
| 1777681622 | 7.22° C | 48% | 1009.9 hPa | 0 mm | - | 25 W/m² | - |
| 1777681321 | 7.22° C | 49% | 1009.9 hPa | 0 mm | - | 28 W/m² | - |
| 1777681018 | 7.22° C | 49% | 1010.1 hPa | 0 mm | - | 31 W/m² | - |
| 1777680715 | 7.22° C | 48% | 1010 hPa | 0 mm | - | 41 W/m² | - |
| 1777680413 | 7.22° C | 49% | 1009.9 hPa | 0 mm | - | 42 W/m² | - |
| 1777680111 | 7.22° C | 48% | 1010 hPa | 0 mm | - | 76 W/m² | - |
| 1777679806 | 7.22° C | 51% | 1010 hPa | 0 mm | - | 45 W/m² | - |
| 1777679502 | 7.22° C | 51% | 1009.9 hPa | 0 mm | - | 46 W/m² | - |
| 1777679198 | 7.22° C | 49% | 1009.9 hPa | 0 mm | - | 46 W/m² | - |
| 1777678896 | 7.22° C | 49% | 1009.9 hPa | 0 mm | - | 55 W/m² | - |
| 1777678593 | 7.22° C | 49% | 1009.8 hPa | 0 mm | - | 55 W/m² | - |
* Rain latest hour (hover to see other rain measurements)
** Current wind speed in m/s (hover to see current wind gust speed)